TAY6LP EDDH-EDDP

Flight info

Callsign TAY6LP
Flight time 0h 40m
Altitude 23000
Route AMLUH2G AMLUH M852 DENIX Z113 SAS Z88 UPDAT/N0442F270 T236 ADMOS/N0417F230 T959 KOJEC KOJEC1V
Aircraft B738/M-SDE2E3FGHIRWXY/LB1

Departure

Time 2026-05-04 18:27
Airport Hamburg Helmut Schmidt Airport (EDDH)

Arrival

Time 2026-05-04 19:08
Airport Leipzig/Halle Airport (EDDP)
Time Latitude Longitude Altitude Speed Heading
2026-05-04 17:49 53.62740 10.00309 47 ft 0 kts 63°
2026-05-04 18:22 53.62739 10.00307 47 ft 2 kts 63°
2026-05-04 18:22 53.62727 10.00269 46 ft 4 kts 55°
2026-05-04 18:22 53.62710 10.00234 46 ft 4 kts 40°
2026-05-04 18:22 53.62688 10.00214 47 ft 4 kts
2026-05-04 18:23 53.62676 10.00217 47 ft 2 kts 333°
2026-05-04 18:25 53.62692 10.00203 46 ft 8 kts 333°
2026-05-04 18:25 53.62746 10.00157 47 ft 9 kts 333°
2026-05-04 18:25 53.62799 10.00112 47 ft 8 kts 333°
2026-05-04 18:26 53.62846 10.00058 47 ft 8 kts 306°
2026-05-04 18:26 53.62844 9.99965 47 ft 10 kts 248°
2026-05-04 18:26 53.62814 9.99827 44 ft 14 kts 275°
2026-05-04 18:26 53.62887 9.99725 44 ft 15 kts 335°
2026-05-04 18:27 53.62984 9.99645 42 ft 18 kts 333°
2026-05-04 18:27 53.63273 9.99394 44 ft 84 kts 333°
2026-05-04 18:27 53.64020 9.98749 50 ft 154 kts 332°
2026-05-04 18:27 53.65041 9.97861 675 ft 169 kts 332°
2026-05-04 18:28 53.66105 9.96962 1613 ft 173 kts 332°
2026-05-04 18:28 53.67196 9.95988 2392 ft 186 kts 330°
2026-05-04 18:28 53.68442 9.94953 2747 ft 209 kts 336°
2026-05-04 18:28 53.69908 9.94619 3346 ft 218 kts 358°
2026-05-04 18:29 53.71434 9.94662 3995 ft 221 kts
2026-05-04 18:29 53.72915 9.95492 4624 ft 232 kts 32°
2026-05-04 18:29 53.73952 9.97590 5237 ft 239 kts 66°
2026-05-04 18:29 53.74317 10.00364 5867 ft 247 kts 85°
2026-05-04 18:30 53.73526 10.05918 7024 ft 263 kts 122°
2026-05-04 18:30 53.72556 10.08722 7326 ft 286 kts 123°
2026-05-04 18:30 53.71539 10.11657 8012 ft 292 kts 122°
2026-05-04 18:31 53.70521 10.14651 8789 ft 296 kts 122°
2026-05-04 18:31 53.69497 10.17687 9589 ft 299 kts 122°
2026-05-04 18:31 53.68774 10.20962 10246 ft 309 kts 105°
2026-05-04 18:31 53.67922 10.24372 10421 ft 327 kts 131°
2026-05-04 18:32 53.66137 10.26833 10613 ft 340 kts 159°
2026-05-04 18:32 53.63805 10.27772 10792 ft 353 kts 179°
2026-05-04 18:32 53.61291 10.27883 11040 ft 368 kts 183°
2026-05-04 18:32 53.58703 10.27838 11566 ft 375 kts 184°
2026-05-04 18:33 53.56083 10.27759 12231 ft 378 kts 184°
2026-05-04 18:33 53.53449 10.27668 12898 ft 381 kts 184°
2026-05-04 18:33 53.50780 10.27568 13572 ft 385 kts 184°
2026-05-04 18:33 53.48086 10.27463 14198 ft 389 kts 184°
2026-05-04 18:34 53.45360 10.27355 14855 ft 392 kts 184°
2026-05-04 18:34 53.42623 10.27251 15512 ft 396 kts 184°
2026-05-04 18:34 53.39855 10.27150 16148 ft 399 kts 184°
2026-05-04 18:34 53.37062 10.27054 16774 ft 403 kts 184°
2026-05-04 18:35 53.34244 10.26963 17383 ft 407 kts 184°
2026-05-04 18:35 53.31431 10.26877 17977 ft 411 kts 184°
2026-05-04 18:35 53.28556 10.26968 18541 ft 417 kts 176°
2026-05-04 18:35 53.25692 10.27900 19157 ft 420 kts 170°
2026-05-04 18:36 53.22856 10.29082 19776 ft 421 kts 169°
2026-05-04 18:36 53.20012 10.30302 20329 ft 423 kts 169°
2026-05-04 18:36 53.17148 10.31500 20853 ft 425 kts 169°
2026-05-04 18:36 53.14298 10.32648 21383 ft 427 kts 170°
2026-05-04 18:37 53.11366 10.33789 21908 ft 428 kts 171°
2026-05-04 18:37 53.08445 10.34896 22410 ft 430 kts 171°
2026-05-04 18:37 53.05553 10.35975 22874 ft 433 kts 172°
2026-05-04 18:37 53.02602 10.37064 22950 ft 440 kts 172°
2026-05-04 18:38 52.99573 10.38176 22959 ft 448 kts 172°
2026-05-04 18:38 52.96509 10.39299 22968 ft 455 kts 172°
2026-05-04 18:38 52.93407 10.40437 22964 ft 456 kts 171°
2026-05-04 18:38 52.90303 10.41579 22954 ft 454 kts 171°
2026-05-04 18:39 52.87228 10.42710 22953 ft 453 kts 171°
2026-05-04 18:39 52.84142 10.43843 22952 ft 452 kts 171°
2026-05-04 18:39 52.81073 10.44967 22959 ft 452 kts 171°
2026-05-04 18:39 52.78004 10.46089 22954 ft 451 kts 172°
2026-05-04 18:40 52.74939 10.47207 22949 ft 451 kts 172°
2026-05-04 18:40 52.71872 10.48323 22945 ft 451 kts 172°
2026-05-04 18:40 52.68845 10.49423 22947 ft 451 kts 171°
2026-05-04 18:40 52.65777 10.50537 22946 ft 451 kts 171°
2026-05-04 18:41 52.62710 10.51649 22950 ft 451 kts 171°
2026-05-04 18:41 52.59636 10.52761 22953 ft 451 kts 171°
2026-05-04 18:41 52.56569 10.53870 22957 ft 452 kts 171°
2026-05-04 18:41 52.53500 10.54978 22958 ft 452 kts 171°
2026-05-04 18:42 52.50428 10.56085 22963 ft 452 kts 171°
2026-05-04 18:42 52.47352 10.57193 22968 ft 452 kts 171°
2026-05-04 18:42 52.44277 10.58298 22954 ft 452 kts 171°
2026-05-04 18:42 52.41198 10.59403 22967 ft 453 kts 171°
2026-05-04 18:43 52.38122 10.60506 22964 ft 453 kts 171°
2026-05-04 18:43 52.35045 10.61608 22969 ft 453 kts 171°
2026-05-04 18:43 52.31967 10.62708 22968 ft 453 kts 171°
2026-05-04 18:43 52.28883 10.63809 22965 ft 453 kts 171°
2026-05-04 18:44 52.25802 10.64907 22952 ft 453 kts 171°
2026-05-04 18:44 52.24796 10.65265 22962 ft 453 kts 171°
2026-05-04 18:44 52.19628 10.67103 22968 ft 453 kts 171°
2026-05-04 18:44 52.16543 10.68198 22960 ft 454 kts 171°
2026-05-04 18:45 52.13509 10.69662 22947 ft 459 kts 161°
2026-05-04 18:45 52.10647 10.72003 22957 ft 463 kts 152°
2026-05-04 18:45 52.07997 10.75055 22566 ft 468 kts 143°
2026-05-04 18:45 52.05567 10.78406 22179 ft 463 kts 143°
2026-05-04 18:46 52.03092 10.81825 21776 ft 460 kts 143°
2026-05-04 18:46 52.00687 10.85119 21390 ft 457 kts 143°
2026-05-04 18:46 51.98244 10.88431 21009 ft 455 kts 143°
2026-05-04 18:46 51.95810 10.91705 20634 ft 453 kts 143°
2026-05-04 18:47 51.93383 10.94951 20258 ft 451 kts 143°
2026-05-04 18:47 51.90962 10.98177 19883 ft 449 kts 143°
2026-05-04 18:47 51.88555 11.01379 19515 ft 446 kts 143°
2026-05-04 18:47 51.86164 11.04556 19147 ft 443 kts 143°
2026-05-04 18:48 51.83791 11.07704 18788 ft 440 kts 143°
2026-05-04 18:48 51.81461 11.10792 18443 ft 437 kts 143°
2026-05-04 18:48 51.79112 11.13902 18067 ft 434 kts 143°
2026-05-04 18:48 51.76790 11.16971 17656 ft 431 kts 143°
2026-05-04 18:49 51.74484 11.20016 17254 ft 421 kts 143°
2026-05-04 18:49 51.72246 11.22970 16970 ft 408 kts 143°
2026-05-04 18:49 51.70100 11.25800 16954 ft 398 kts 143°
2026-05-04 18:49 51.67955 11.28619 16952 ft 395 kts 143°
2026-05-04 18:50 51.65823 11.31416 16955 ft 395 kts 143°
2026-05-04 18:50 51.63688 11.34213 16949 ft 395 kts 143°
2026-05-04 18:50 51.61549 11.37015 16948 ft 395 kts 143°
2026-05-04 18:50 51.59412 11.39812 16474 ft 396 kts 143°
2026-05-04 18:51 51.57319 11.42551 16012 ft 390 kts 143°
2026-05-04 18:51 51.55199 11.45318 15528 ft 384 kts 143°
2026-05-04 18:51 51.53281 11.48186 15025 ft 383 kts 130°
2026-05-04 18:51 51.52021 11.51937 14552 ft 383 kts 111°
2026-05-04 18:52 51.51539 11.56109 14067 ft 382 kts 92°
2026-05-04 18:52 51.51706 11.60346 13605 ft 378 kts 86°
2026-05-04 18:52 51.51961 11.64533 13071 ft 375 kts 86°
2026-05-04 18:52 51.52210 11.68678 12545 ft 371 kts 86°
2026-05-04 18:53 51.52435 11.72786 12028 ft 368 kts 86°
2026-05-04 18:53 51.52645 11.76870 11518 ft 365 kts 87°
2026-05-04 18:53 51.52780 11.79557 11188 ft 363 kts 87°
2026-05-04 18:53 51.52980 11.83580 10679 ft 361 kts 87°
2026-05-04 18:54 51.53178 11.87578 10279 ft 354 kts 87°
2026-05-04 18:54 51.53369 11.91420 10043 ft 337 kts 87°
2026-05-04 18:54 51.53550 11.95096 9797 ft 324 kts 87°
2026-05-04 18:54 51.53723 11.98632 9582 ft 312 kts 87°
2026-05-04 18:55 51.53890 12.02088 9268 ft 308 kts 87°
2026-05-04 18:55 51.54215 12.08866 8740 ft 299 kts 87°
2026-05-04 18:55 51.54373 12.12175 8489 ft 295 kts 87°
2026-05-04 18:56 51.54529 12.15442 8267 ft 291 kts 87°
2026-05-04 18:56 51.54680 12.18656 8059 ft 287 kts 87°
2026-05-04 18:56 51.54829 12.21855 7974 ft 288 kts 87°
2026-05-04 18:56 51.54979 12.25070 7942 ft 288 kts 87°
2026-05-04 18:57 51.55127 12.28263 7950 ft 287 kts 87°
2026-05-04 18:57 51.55274 12.31465 7904 ft 288 kts 87°
2026-05-04 18:57 51.55421 12.34682 7754 ft 289 kts 87°
2026-05-04 18:57 51.55569 12.37927 7471 ft 290 kts 87°
2026-05-04 18:58 51.55714 12.41135 7205 ft 285 kts 87°
2026-05-04 18:58 51.55855 12.44270 6924 ft 277 kts 86°
2026-05-04 18:58 51.55989 12.47273 6707 ft 268 kts 86°
2026-05-04 18:58 51.56120 12.50221 6448 ft 261 kts 86°
2026-05-04 18:59 51.56246 12.53071 6188 ft 251 kts 86°
2026-05-04 18:59 51.56367 12.55851 5878 ft 247 kts 86°
2026-05-04 18:59 51.56487 12.58600 5569 ft 246 kts 86°
2026-05-04 18:59 51.56605 12.61325 5282 ft 243 kts 86°
2026-05-04 19:00 51.56599 12.64011 4948 ft 241 kts 103°
2026-05-04 19:00 51.55837 12.66324 4718 ft 233 kts 136°
2026-05-04 19:00 51.54469 12.67582 4476 ft 226 kts 169°
2026-05-04 19:00 51.52919 12.67508 4249 ft 224 kts 192°
2026-05-04 19:01 51.51386 12.66947 4027 ft 228 kts 194°
2026-05-04 19:01 51.49852 12.66343 3800 ft 230 kts 194°
2026-05-04 19:01 51.48293 12.65718 3574 ft 231 kts 194°
2026-05-04 19:01 51.46743 12.65091 3445 ft 228 kts 194°
2026-05-04 19:02 51.45301 12.64117 3295 ft 225 kts 219°
2026-05-04 19:02 51.44419 12.62126 3206 ft 219 kts 250°
2026-05-04 19:02 51.43922 12.59810 3124 ft 223 kts 250°
2026-05-04 19:02 51.43382 12.57489 3024 ft 218 kts 250°
2026-05-04 19:03 51.42867 12.55308 2993 ft 200 kts 250°
2026-05-04 19:03 51.42525 12.53260 2968 ft 182 kts 272°
2026-05-04 19:03 51.42589 12.51289 2990 ft 173 kts 269°
2026-05-04 19:03 51.42514 12.49415 2980 ft 166 kts 266°
2026-05-04 19:04 51.42428 12.47561 2999 ft 169 kts 267°
2026-05-04 19:04 51.42356 12.45685 2902 ft 174 kts 266°
2026-05-04 19:04 51.42268 12.43732 2681 ft 174 kts 266°
2026-05-04 19:04 51.42177 12.41837 2458 ft 166 kts 266°
2026-05-04 19:05 51.42091 12.40072 2270 ft 152 kts 266°
2026-05-04 19:05 51.42009 12.38380 2059 ft 153 kts 266°
2026-05-04 19:05 51.41927 12.36664 1849 ft 155 kts 266°
2026-05-04 19:05 51.41844 12.34943 1642 ft 154 kts 266°
2026-05-04 19:06 51.41762 12.33234 1432 ft 154 kts 266°
2026-05-04 19:06 51.41668 12.31502 1263 ft 158 kts 266°
2026-05-04 19:06 51.41590 12.29718 1073 ft 161 kts 266°
2026-05-04 19:06 51.41510 12.27964 801 ft 158 kts 266°
2026-05-04 19:07 51.41429 12.26266 591 ft 151 kts 266°
2026-05-04 19:07 51.41356 12.24639 478 ft 138 kts 266°
2026-05-04 19:07 51.41295 12.23337 469 ft 96 kts 265°
2026-05-04 19:07 51.41255 12.22467 461 ft 70 kts 266°
2026-05-04 19:08 51.41180 12.21794 454 ft 35 kts 240°
2026-05-04 19:08 51.41117 12.21643 456 ft 9 kts 235°
2026-05-04 19:08 51.41109 12.21622 456 ft 0 kts 235°
2026-05-04 19:08 51.41106 12.21617 456 ft 1 kts 235°
2026-05-04 19:09 51.41103 12.21610 456 ft 1 kts 234°
2026-05-04 19:09 51.41100 12.21603 456 ft 1 kts 234°
2026-05-04 19:09 51.41094 12.21589 456 ft 3 kts 235°
2026-05-04 19:09 51.41073 12.21530 455 ft 8 kts 244°
2026-05-04 19:10 51.41045 12.21409 451 ft 15 kts 253°
2026-05-04 19:10 51.41022 12.21350 450 ft 5 kts 254°
2026-05-04 19:10 51.41025 12.21200 449 ft 18 kts 266°
2026-05-04 19:10 51.41002 12.21016 441 ft 17 kts 229°
2026-05-04 19:11 51.40922 12.20896 438 ft 17 kts 265°
2026-05-04 19:11 51.40914 12.20754 434 ft 12 kts 266°
2026-05-04 19:11 51.40908 12.20617 437 ft 10 kts 265°
2026-05-04 19:11 51.40904 12.20505 437 ft 10 kts 271°
2026-05-04 19:12 51.40919 12.20399 427 ft 10 kts 289°
2026-05-04 19:12 51.40886 12.20304 436 ft 2 kts 163°
2026-05-04 19:12 51.40872 12.20308 434 ft 2 kts 172°
2026-05-04 19:13 51.40859 12.20310 427 ft 2 kts 173°
2026-05-04 19:13 51.40845 12.20312 436 ft 2 kts 176°
2026-05-04 19:13 51.40833 12.20313 432 ft 2 kts 176°
2026-05-04 19:13 51.40820 12.20315 429 ft 1 kts 176°
2026-05-04 19:14 51.40819 12.20315 430 ft 0 kts 176°